Погода Минеральные Воды

Поиск расширенной информации на нашем сайте:

Полезная информация:

Новости сайта



02.01.2020
Опубликован Долгосрочный прогноз погоды по городам России и ближнего зарубежья на январь 2020 года.
Карты: Прогноз на январь и февраль 2020 года, Сравнение прогнозируемой аномалии приземной температуры воздуха на январь 2020 года по разным моделям.




Погода Минеральные Воды - сегодня

Время (UTC), дата Ветер
(°,м/с) 
Видим.   Явления Облачность Т
(°С)
Тd
(°С)
f(%) Тe
(°С)
Pmin
(гПа)
dP
(гПа)
Po
(мм)
O2
(г/м3)
Тmin Tmax R s Состояние
почвы
15 18.10.20 100 (В) 20000 м    8/8 1000 м 
[Sc diur, vesp]
+26.5 +11.2 38 +30  1009.2  730  266    +31.1       
18 18.10.20 240 (ЮЗ) 10 км    ясно 
+11.3 +7 75 +12  1016.7  0.5  734  283           
21 18.10.20 260 (З) 10 км    ясно 
+8.5 +4.1 74 +10  1017.1  734  286           
00 19.10.20 270 (З) 10 км    ясно 
+9.8 +4.5 70 +11  1017.9  0.9  735  285           
03 19.10.20 260 (З) 10 км    10/10 1000 м 
[Sc]
+9.5 +4.7 72 +11  1018.7  0.9  736  286  +8.4        сухая 
06 19.10.20 260 (З) 20000 м    6/6 1000 м 
[Sc]
+16.4 +8.2 58 +18  1017.9  0.1  736  278           
09 19.10.20 290 (З) 20000 м    ясно 
+22.5 +8.6 41 +23  1015.2  -1.7  734  272           
12 19.10.20 тихо ()   20000 м    10/10 1000 м 
[Sc]
+23.1 +8 38 +23  1014.4  -0.7  734  271           
15 19.10.20 100 (В) 20000 м    8/4 1000 м средняя 
[Sc|Ac lent]
+18.2 +9.2 56 +21  1014.7  -0.4  734  275    +24.1       
18 19.10.20 250 (З) 2{11}  2000 м  ливневой дождь  10/10 300 м кучево-дожд. 
[Cb cap]
+14.9 +13.9 94 +23  1019.3  4.1  737  279           
21 19.10.20 240 (ЮЗ) 3{11}  10 км  {ливн. осадки}  10/10 600 м кучево-дожд. 
[Cb cap]
+13 +11.1 88 +16  1021.4  1.7  738  282           
00 20.10.20 250 (З) 4{10}  10 км  {ливн. осадки}  10/10 1000 м 
[Sc diur, vesp]
+12.9 +9 77 +12  1022.9  1.4  739  283           
03 20.10.20 270 (З) 20000 м    3/3 600 м 
[]
+10.1 +7.5 84 +11  1025.1  1.7  740  286  +10.1    14    сухая 
06 20.10.20 150 (ЮВ) 10 км    10/10 1000 м 
[Sc]
+10.9 +7.7 81 +12  1026.3  1.3  741  286  +9.6         
09 20.10.20 130 (ЮВ) 20000 м    10/10 1000 м 
[Sc]
+13.4 +7.1 66 +15  1025.3  -0.6  741  283           
12 20.10.20 110 (В) 20000 м    10/10 1000 м 
[Sc]
+14.5 +7.3 62 +15  1024.6  -0.6  740  282           
15 20.10.20 110 (В) 10 км    10/10 1000 м 
[Sc]
+13.5 +7.5 67 +15  1024.9  -0.6  740  283    +14.9       
18 20.10.20 330 (СЗ) 10 км    10/10 1000 м 
[Sc]
+12.3 +8.4 77 +14  1025.8  0.8  741  284           
21 20.10.20 260 (З) 10 км    10/10 1000 м 
[Sc]
+11.3 +7.7 78 +12  1027.2  1.1  742  286           
00 21.10.20 270 (З) 10 км    10/10 1000 м 
[Sc]
+9.9 +5.9 76 +11  1027.8  0.4  742  288           
03 21.10.20 260 (З) 10 км    10/10 1000 м 
[Sc]
+8.1 +5.9 86 +9  1029.6  1.5  743  290  +7.6         
06 21.10.20 240 (ЮЗ) 20000 м    ясно 
+11.7 +4.9 63 +13  1030.4  1.1  744  287           
09 21.10.20 320 (СЗ) 20000 м    8/8 1000 м 
[Sc]
+14.8 +4.4 50 +16  1029  -0.9  744  284           
12 21.10.20 270 (З) 20000 м    ясно 
+16.2 +3.4 42 +18  1027.9  -0.8  743  282           
15 21.10.20 тихо ()   10 км    ясно 
+10.3 +4.7 68 +10  1028.5  0.1  743  288    +16.4       
Время (UTC), дата Ветер
(°,м/с) 
Видим.   Явления Облачность Т
(°С)
Тd
(°С)
f(%) Тe
(°С)
Pmin
(гПа)
dP
(гПа)
Po
(мм)
O2
(г/м3)
Тmin Tmax R s Состояние
почвы

Для получения пояснительной информации подведите курсор к названию столбца.

ПОГОДА Минеральные Воды - архив

Всё, что Вы хотите узнать о погоде Минеральные Воды - удобно и подробно!

Выберите нужную дату (начиная с 1 января 2019* года) и нажмите кнопку "Найти".
Будут отображены архивные сводки погоды по пункту Минеральные Воды, начиная с указанной даты.


Отображать данные в формате CSV (для использования в таблицах Excel)


Внимание! Наш архив погоды предназначен исключительно для личного некоммерческого использования в познавательных целях. Если Вам необходимы официальные справки о состоянии погоды (для производственных, юридических, коммерческих и т.п. целей), обращайтесь в органы Росгидромета.

*Примечание: данная дата относится к архиву по метеостанциям СССР (Россия, СНГ, Балтия).
Архив по метеостанциям Зарубежной Европы и Азии (кроме Китая) хранится 10 дней, по другим регионам земного шара (Китай, Африка, Америка, Австралия, Океания) - 1 день.

Минеральные Воды - район местоположения метеостанции


Название, широта, долгота, высота метеостанции:
Минеральные Воды 44.2°ш. 43.1°д. 316 м над ур. моря [Российская Федерация]

Дополнительная информация

В oтличие oт бoльшинства пoгoдных сайтoв мы публикуем пoдрoбную метеoинфoрмацию в детальнoм прoфессиoнальнoм фoрмате.

Характеристики температуры и влажнoсти вoздуха измеряются на высoте 2 м в тени вдали oт зданий и деревьев.
Скoрoсть ветра измеряется на высoте 10 м (на урoвне рoста челoвека скoрoсть ветра ниже в 1.5-2 раза). Если метеoстанция нахoдится в гoрoде или в лесу, тo скoрoсть ветра занижена на 2-4 м/с пo сравнению с oткрытым местoм. Скoрoсть ветра над акватoриями крупных рек и oзёр, а также на вершинах хoлмoв на 2-5 м/с выше, чем в oбычных услoвиях.
Атмoсфернoе давление в разных тoчках местнoсти мoжет значительнo oтличаться oт давления на метеoстанции, в зависимoсти oт услoвий рельефа (при пoдъёме на 10 м давление пoнижается примернo на 1 мм рт.ст.).